Location: Amsterdam
(30.7274°N, 84.4357°W)
Time: 19:32:00
(UTC+00:00)

Altair - Pass Details

Date: 14 August 2024
Orbit: 1501 x 1682 km, 47.2° (Epoch: 07 September)

Event Time Altitude Azimuth Distance (km) Brightness Sun altitude
Rises 18:53:58 0° 282° (WNW) 4,878 10.3 66.5°
Reaches altitude 10° 18:57:44 10° 292° (WNW) 3,867 9.9 65.9°
Maximum altitude 19:06:06 30° 351° (N) 2,555 9.0 64.5°
Drops below altitude 10° 19:14:13 10° 50° (NE) 3,744 9.4 63.1°
Sets 19:17:49 0° 61° (ENE) 4,702 9.8 62.4°
